User: anonymous   Login
Location: Riverside Cemetery
(38.3047°N, 99.7773°W)
Time: 12:14:55
(UTC+00:00)
Language:

Meteor 2-5 Rocket - Orbit

View from above orbital plane
View from above orbital plane
View from above satellite
View from above satellite

Ground track
Ground track

The orbit data is extracted from the following two-line orbital elements,

1 11608U 79095B   20329.57093568 -.00000015  00000-0 -16320-4 0  9999
2 11608  81.2153  71.7495 0053461 231.9771 127.6565 14.06165978106646
Epoch (UTC): 24 November 2020 13:42:08
Eccentricity: 0.0053461
inclination: 81.2153°
perigee height: 834 km
apogee height: 911 km
right ascension of ascending node: 71.7495°
argument of perigee: 231.9771°
revolutions per day: 14.06165978
mean anomaly at epoch: 127.6565°
orbit number at epoch: 10664

The dashed part of the orbit path shows where the satellite is in the earth's shadow,  

DLR